Hourly Data Report for October 28, 2015

All times are specified in Local Standard Time (LST). Add 1 hour to adjust for Daylight Saving Time where and when it is observed.

IQALUIT CLIMATE
NUNAVUT

63°44'50.000" N
68°32'40.000" W
33.50 m
2402592
71321
XFB

Download Data

Hourly Data (October 2015)
Hourly Data Report for October 28, 2015
Temp Definition
°C
Dew Point Temp Definition
°C
Rel Hum Definition
%
Wind Dir Definition
10's deg

Wind Spd Definition
km/h
Visibility Definition
km
Stn Press Definition
kPa
Hmdx Definition


Wind Chill Definition


Weather Definition


TIME
00:00 -16.5 -19.0 81 33 36   100.27   -29 LegendNANA
01:00 -16.4 -19.0 80 33 31   100.34   -28 LegendNANA
02:00 -16.8 -19.4 80 33 33   100.43   -29 LegendNANA
03:00 -16.7 -19.3 80 34 39   100.52   -30 LegendNANA
04:00 -17.3 -20.0 80 34 30   100.62   -29 LegendNANA
05:00 -17.8 -20.6 79 34 32   100.71   -30 LegendNANA
06:00 -18.4 -21.1 79 34 28   100.79   -30 LegendNANA
07:00 -18.0 -20.8 79 35 26   100.82   -29 LegendNANA
08:00 -18.1 -20.8 79 35 24   100.86   -29 LegendNANA
09:00 -15.9 -18.8 79 33 28   100.89   -27 LegendNANA
10:00 -16.0 -18.7 79 32 30   100.91   -27 LegendNANA
11:00 -15.1 -17.9 80 32 22   100.92   -25 LegendNANA
12:00 -14.9 -17.6 80 33 28   100.94   -26 LegendNANA
13:00 -15.0 -17.8 79 33 28   101.00   -26 LegendNANA
14:00 -15.4 -18.3 78 32 27   101.04   -26 LegendNANA
15:00 -14.6 -17.4 79 33 25   101.09   -25 LegendNANA
16:00 -15.6 -18.3 80 35 21   101.12   -25 LegendNANA
17:00 -16.1 -19.0 78 36 25   101.11   -27 LegendNANA
18:00 -16.2 -18.7 81 35 16   101.14   -25 LegendNANA
19:00 -15.2 -18.2 78 35 22   101.13   -25 LegendNANA
20:00 -15.6 -18.4 79 35 22   101.11   -25 LegendNANA
21:00 -16.5 -19.3 80 33 20   101.07   -26 LegendNANA
22:00 -17.1 -19.5 82 31 22   101.06   -27 LegendNANA
23:00 -16.2 -18.7 82 34 19   101.02   -25 LegendNANA

Notes on Data Quality.

Legend

  • E = Estimated
  • M = Missing
  • NA = Not Available
  • ‡ = Partner data that is not subject to review by the National Climate Archives
Date modified: